FW2602 Weather Reports


Display with metric or nautical units.
time (UTC)temp
F
wind
direction
speed
MPH
gust
MPH
rain 1hr
in
rain 24hr
in
rain mn
in
humidity
%
barometer
mb
20210621094653 73 307 4.0 10.0 0.00 0.00 0.00 81 1004.5
20210621094106 73 262 3.0 11.0 0.00 0.00 0.00 81 1004.4
20210621093604 73 342 4.0 13.0 0.00 0.00 0.00 81 1004.6
20210621093152 73 290 5.0 14.0 0.00 0.00 0.00 81 1004.6
20210621092606 73 306 7.0 14.0 0.00 0.00 0.00 81 1004.5
20210621092113 73 307 6.0 14.0 0.00 0.00 0.00 81 1004.4
20210621091731 73 265 4.0 17.0 0.00 0.00 0.00 81 1004.3
20210621091056 73 278 6.0 13.0 0.00 0.00 0.00 81 1004.4
20210621090556 73 337 4.0 10.0 0.00 0.00 0.00 81 1004.4
20210621085559 74 324 6.0 14.0 0.00 0.00 0.00 79 1004.5
20210621085055 74 309 5.0 13.0 0.00 0.00 0.00 79 1004.5
20210621084619 73 5 5.0 13.0 0.00 0.00 0.00 79 1004.5
20210621084054 73 338 3.0 12.0 0.00 0.00 0.00 80 1004.6
20210621083554 73 303 3.0 10.0 0.00 0.00 0.00 80 1004.6
20210621083151 73 325 3.0 10.0 0.00 0.00 0.00 80 1004.6
20210621082602 73 282 2.0 9.0 0.00 0.00 0.00 80 1004.6
20210621082052 73 294 3.0 8.0 0.00 0.00 0.00 80 1004.7
20210621081658 73 308 3.0 8.0 0.00 0.00 0.00 80 1004.7
20210621081051 73 280 3.0 10.0 0.00 0.00 0.00 80 1004.9
20210621080607 73 319 2.0 9.0 0.00 0.00 0.00 80 1005.0
20210621080158 73 287 3.0 10.0 0.00 0.00 0.00 80 1004.9
20210621075557 73 274 3.0 10.0 0.00 0.00 0.00 80 1004.9
20210621075048 73 288 3.0 10.0 0.00 0.00 0.00 80 1005.1
20210621074638 73 349 3.0 10.0 0.00 0.00 0.00 80 1005.1
20210621074053 73 332 4.0 9.0 0.00 0.00 0.00 81 1005.1
20210621073549 73 296 3.0 9.0 0.00 0.00 0.00 81 1005.2
20210621073122 73 309 3.0 9.0 0.00 0.00 0.00 81 1005.3
20210621072556 72 93 1.0 8.0 0.00 0.00 0.00 82 1005.3
20210621072046 72 321 5.0 8.0 0.00 0.00 0.00 83 1005.4
20210621071624 71 250 3.0 8.0 0.00 0.00 0.00 85 1005.3
20210621071044 70 335 4.0 8.0 0.00 0.00 0.00 88 1005.2
20210621070602 69 308 0.0 4.0 0.00 0.00 0.00 88 1005.4
20210621070114 70 295 1.0 4.0 0.00 0.00 0.00 87 1005.4
20210621065604 69 15 0.0 3.0 0.00 0.00 0.00 88 1005.3
20210621065055 69 311 0.0 3.0 0.00 0.00 0.00 87 1005.3
20210621064716 69 6 0.0 5.0 0.00 0.00 0.00 87 1005.4
20210621064049 70 292 2.0 5.0 0.00 0.00 0.00 86 1005.4
20210621063549 70 316 0.0 4.0 0.00 0.00 0.00 88 1005.4
20210621063113 69 86 0.0 1.0 0.00 0.00 0.00 87 1005.5
20210621062543 69 83 0.0 0.0 0.00 0.00 0.00 87 1005.6
20210621062043 69 83 0.0 0.0 0.00 0.00 0.00 87 1005.6
20210621061616 69 83 0.0 1.0 0.00 0.00 0.00 87 1005.5
20210621061043 69 101 0.0 2.0 0.00 0.00 0.00 86 1005.4
20210621060540 70 101 0.0 2.0 0.00 0.00 0.00 86 1005.5
20210621060058 70 82 0.0 3.0 0.00 0.01 0.00 84 1005.7
20210621055538 71 65 0.0 3.0 0.00 0.01 0.00 84 1005.7
20210621055038 71 314 0.0 3.0 0.00 0.01 0.00 84 1005.8
20210621054559 70 316 0.0 3.0 0.00 0.01 0.00 86 1005.8
20210621054107 70 82 0.0 2.0 0.00 0.01 0.00 86 1005.8
20210621053539 69 63 0.0 2.0 0.00 0.01 0.00 86 1005.9
20210621053138 69 93 0.0 1.0 0.00 0.01 0.00 87 1006.1
20210621052540 69 92 0.0 2.0 0.00 0.01 0.00 87 1006.1
20210621052036 69 101 1.0 2.0 0.00 0.01 0.00 87 1006.2
20210621051036 68 84 2.0 3.0 0.00 0.01 0.00 87 1006.4
20210621050537 69 98 2.0 5.0 0.00 0.01 0.00 86 1006.6
20210621050050 69 92 0.0 9.0 0.00 0.04 0.00 84 1006.8
20210621045534 72 290 4.0 12.0 0.00 0.04 0.00 79 1006.7
20210621045030 73 300 6.0 12.0 0.00 0.04 0.00 76 1006.3
20210621044551 74 314 4.0 9.0 0.00 0.04 0.00 76 1006.0
20210621044028 74 323 3.0 9.0 0.00 0.04 0.00 76 1005.9
20210621043526 74 304 3.0 9.0 0.00 0.04 0.00 76 1006.1
20210621043105 73 167 3.0 8.0 0.00 0.04 0.00 76 1006.2
20210621042525 73 324 3.0 8.0 0.00 0.04 0.00 76 1006.2
20210621042024 73 294 4.0 8.0 0.00 0.04 0.00 76 1006.2
20210621041610 73 318 1.0 7.0 0.00 0.04 0.00 77 1006.3
20210621041043 73 326 2.0 7.0 0.00 0.04 0.00 77 1006.5
20210621040521 73 322 1.0 7.0 0.00 0.04 0.00 78 1006.6
20210621040033 73 355 2.0 7.0 0.00 0.08 0.04 77 1006.8
20210621035521 74 294 2.0 12.0 0.00 0.08 0.04 75 1006.7
20210621035040 74 268 4.0 9.0 0.00 0.08 0.04 73 1006.9
20210621034621 74 321 3.0 8.0 0.00 0.08 0.04 73 1006.8
20210621034021 74 321 3.0 8.0 0.00 0.08 0.04 73 1006.8
20210621033522 74 314 2.0 6.0 0.00 0.08 0.04 74 1006.8
20210621033021 74 280 1.0 4.0 0.00 0.08 0.04 73 1006.8
20210621032518 74 287 1.0 4.0 0.00 0.08 0.04 73 1006.9
20210621032017 74 293 1.0 6.0 0.00 0.08 0.04 73 1007.0
20210621031535 74 307 2.0 9.0 0.00 0.08 0.04 72 1007.1
20210621031020 75 283 1.0 9.0 0.00 0.08 0.04 72 1007.0
20210621030528 74 304 3.0 6.0 0.00 0.08 0.04 72 1007.0
20210621030018 74 302 1.0 7.0 0.00 0.08 0.04 72 1007.1
20210621025533 74 259 2.0 6.0 0.00 0.08 0.04 72 1007.1
20210621025017 74 151 1.0 6.0 0.00 0.08 0.04 72 1007.2
20210621024542 74 321 1.0 5.0 0.00 0.08 0.04 72 1007.3
20210621024019 74 73 2.0 5.0 0.00 0.08 0.04 72 1007.3
20210621023518 74 188 1.0 5.0 0.00 0.08 0.04 72 1007.4
20210621023044 74 217 1.0 5.0 0.00 0.08 0.04 72 1007.4
20210621022520 74 314 0.0 8.0 0.00 0.08 0.04 71 1007.4
20210621022024 74 328 2.0 8.0 0.00 0.08 0.04 72 1007.5
20210621021521 73 56 1.0 4.0 0.00 0.08 0.04 72 1007.6
20210621021019 73 356 1.0 4.0 0.00 0.08 0.04 71 1007.5
20210621020518 73 47 0.0 3.0 0.00 0.08 0.04 71 1007.6
20210621020107 73 328 0.0 5.0 0.00 0.08 0.04 72 1007.5
20210621015514 73 208 0.0 5.0 0.00 0.08 0.04 72 1007.6
20210621015014 72 194 0.0 4.0 0.00 0.08 0.04 73 1007.6
20210621014553 72 5 0.0 3.0 0.00 0.08 0.04 74 1007.7
20210621014014 72 100 0.0 1.0 0.00 0.08 0.04 75 1007.8
20210621013513 72 72 0.0 3.0 0.00 0.08 0.04 74 1007.7
20210621013048 71 21 0.0 3.0 0.00 0.08 0.04 75 1007.7
20210621012517 71 69 0.0 2.0 0.00 0.08 0.04 75 1007.8
20210621012030 71 105 0.0 1.0 0.00 0.08 0.04 75 1007.8
20210621011542 71 101 0.0 1.0 0.00 0.08 0.04 74 1007.6
20210621011016 71 115 0.0 1.0 0.00 0.08 0.04 74 1007.6
20210621010532 71 169 0.0 2.0 0.00 0.08 0.04 74 1007.4
20210621010017 72 61 0.0 2.0 0.00 0.08 0.04 74 1007.4
20210621005514 71 89 0.0 2.0 0.00 0.08 0.04 74 1007.3
20210621005012 72 98 0.0 2.0 0.00 0.08 0.04 74 1007.2
20210621004512 72 94 0.0 2.0 0.00 0.08 0.04 73 1007.2
20210621004011 72 98 0.0 2.0 0.00 0.08 0.04 73 1007.1
20210621003510 73 105 0.0 2.0 0.00 0.08 0.04 72 1007.1
20210621003041 73 111 1.0 2.0 0.00 0.08 0.04 72 1007.2
20210621002516 74 82 0.0 2.0 0.00 0.08 0.04 71 1007.3
20210621002019 74 85 0.0 1.0 0.00 0.08 0.04 71 1007.2
20210621001609 74 96 0.0 1.0 0.00 0.08 0.04 71 1007.3
20210621001029 75 96 0.0 1.0 0.00 0.08 0.04 72 1007.2
20210621000522 75 108 0.0 1.0 0.00 0.08 0.04 72 1007.1
20210621000057 76 74 0.0 1.0 0.00 0.08 0.04 71 1007.1
20210620235528 76 65 0.0 1.0 0.00 0.08 0.04 71 1007.0
20210620235021 76 111 0.0 1.0 0.00 0.08 0.04 70 1007.0
20210620234523 76 103 0.0 0.0 0.00 0.08 0.04 72 1007.1
20210620234023 76 103 0.0 0.0 0.00 0.08 0.04 73 1007.1
20210620233522 75 103 0.0 0.0 0.00 0.08 0.04 72 1007.2
20210620233007 75 103 0.0 0.0 0.00 0.08 0.04 70 1007.2
20210620232509 76 103 0.0 0.0 0.00 0.08 0.04 69 1007.2
20210620232012 77 293 0.0 3.0 0.00 0.08 0.04 66 1007.2
20210620231515 78 289 0.0 3.0 0.00 0.08 0.04 65 1007.2
20210620231025 78 273 0.0 5.0 0.00 0.08 0.04 65 1007.3
20210620230532 78 285 2.0 5.0 0.00 0.08 0.04 61 1007.1
20210620230010 78 283 2.0 4.0 0.00 0.08 0.04 61 1007.1
20210620225508 79 307 2.0 5.0 0.00 0.08 0.04 61 1007.1
20210620225016 79 288 4.0 6.0 0.00 0.08 0.04 60 1007.2
20210620224540 79 269 3.0 6.0 0.00 0.08 0.04 60 1007.2
20210620224036 79 295 3.0 7.0 0.00 0.08 0.04 60 1007.2
20210620223523 78 295 3.0 9.0 0.00 0.08 0.04 61 1007.1
20210620223024 78 289 5.0 9.0 0.00 0.08 0.04 62 1007.2
20210620222510 78 307 4.0 8.0 0.00 0.08 0.04 63 1007.3
20210620221517 78 281 1.0 4.0 0.00 0.08 0.04 63 1007.2
20210620221024 78 294 1.0 4.0 0.00 0.08 0.04 62 1007.0
20210620220531 78 287 2.0 4.0 0.00 0.08 0.04 64 1006.9
20210620220028 78 277 0.0 4.0 0.00 0.08 0.04 64 1006.9
20210620215506 77 277 0.0 5.0 0.00 0.08 0.04 63 1006.8
20210620215020 78 303 2.0 10.0 0.00 0.08 0.04 63 1006.9
20210620214517 78 293 4.0 10.0 0.00 0.08 0.04 60 1006.8
20210620214027 79 305 5.0 8.0 0.00 0.08 0.04 62 1006.9
20210620213529 79 319 3.0 9.0 0.00 0.08 0.04 61 1006.9
20210620213045 79 314 4.0 9.0 0.00 0.08 0.04 59 1007.0
20210620212536 79 302 5.0 9.0 0.00 0.08 0.04 60 1007.1
20210620212023 78 270 5.0 8.0 0.00 0.08 0.04 60 1007.2
20210620211554 78 294 5.0 8.0 0.00 0.08 0.04 62 1007.3
20210620211018 78 289 4.0 8.0 0.00 0.08 0.04 62 1007.3
20210620210512 78 302 4.0 9.0 0.00 0.08 0.04 63 1007.5
20210620210040 78 287 6.0 11.0 0.00 0.08 0.04 63 1007.3
20210620205528 79 301 6.0 10.0 0.00 0.08 0.04 64 1007.5
20210620205022 78 288 6.0 9.0 0.00 0.08 0.04 65 1007.5
20210620204541 78 305 5.0 8.0 0.00 0.08 0.04 63 1007.5
20210620204031 78 294 4.0 8.0 0.00 0.08 0.04 62 1007.6
20210620203527 78 316 4.0 10.0 0.00 0.08 0.04 61 1007.6
20210620203055 79 307 7.0 10.0 0.00 0.08 0.04 61 1007.6
20210620202511 78 280 3.0 7.0 0.00 0.08 0.04 60 1007.5
20210620202018 78 297 4.0 7.0 0.00 0.08 0.04 63 1007.5
20210620201540 78 297 3.0 7.0 0.00 0.08 0.04 63 1007.6
20210620201025 78 280 3.0 8.0 0.00 0.08 0.04 62 1007.6
20210620200525 77 301 3.0 8.0 0.00 0.08 0.04 61 1007.6
20210620200038 77 262 4.0 9.0 0.00 0.08 0.04 65 1007.6
20210620195529 76 255 5.0 10.0 0.00 0.08 0.04 62 1007.6
20210620195011 77 300 4.0 10.0 0.00 0.08 0.04 60 1007.6
20210620194520 77 276 6.0 13.0 0.00 0.08 0.04 62 1007.5
20210620194022 78 291 9.0 13.0 0.00 0.08 0.04 62 1007.5
20210620193532 77 302 3.0 6.0 0.00 0.08 0.04 60 1007.3
20210620193145 77 277 2.0 5.0 0.00 0.08 0.04 61 1007.4
20210620192524 76 297 2.0 7.0 0.00 0.08 0.04 62 1007.4
20210620192025 76 277 3.0 6.0 0.00 0.08 0.04 64 1007.3
20210620191549 76 293 1.0 7.0 0.00 0.08 0.04 60 1007.3
20210620191026 77 291 4.0 9.0 0.00 0.08 0.04 61 1007.3
20210620190525 76 290 6.0 10.0 0.00 0.08 0.04 60 1007.3
20210620190032 76 301 4.0 8.0 0.00 0.08 0.04 61 1007.4
20210620185527 76 310 5.0 8.0 0.00 0.08 0.04 63 1007.5
20210620185006 76 280 3.0 11.0 0.00 0.08 0.04 62 1007.5
20210620184510 77 293 6.0 15.0 0.00 0.08 0.04 64 1007.6
20210620184018 77 297 7.0 15.0 0.00 0.08 0.04 61 1007.4
20210620183521 77 307 6.0 11.0 0.00 0.08 0.04 61 1007.5
20210620183047 76 280 6.0 11.0 0.00 0.08 0.04 61 1007.5
20210620182536 76 316 2.0 11.0 0.00 0.08 0.04 60 1007.7
20210620182027 76 326 7.0 14.0 0.00 0.08 0.04 60 1007.7
20210620181606 77 267 7.0 14.0 0.00 0.08 0.04 58 1007.7
20210620181040 77 316 7.0 12.0 0.00 0.08 0.04 61 1007.6
20210620180527 77 281 6.0 13.0 0.00 0.08 0.04 60 1007.6
20210620180018 77 309 6.0 16.0 0.00 0.08 0.04 61 1007.7
20210620175524 77 271 8.0 16.0 0.00 0.08 0.04 62 1007.7
20210620175017 77 303 5.0 11.0 0.00 0.08 0.04 59 1007.5
20210620174600 77 291 6.0 11.0 0.00 0.08 0.04 61 1007.6
20210620174022 76 274 7.0 13.0 0.00 0.08 0.04 60 1007.6
20210620173519 77 285 6.0 13.0 0.00 0.08 0.04 60 1007.6
20210620173033 76 295 6.0 13.0 0.00 0.08 0.04 60 1007.8
20210620172548 76 296 5.0 11.0 0.00 0.08 0.04 58 1007.8
20210620172027 76 297 4.0 9.0 0.00 0.08 0.04 60 1007.8
20210620171642 76 298 4.0 10.0 0.00 0.08 0.04 62 1007.9
20210620171038 76 291 5.0 11.0 0.00 0.08 0.04 60 1007.9
20210620170527 76 281 6.0 12.0 0.00 0.08 0.04 64 1008.0
20210620170035 76 294 4.0 12.0 0.00 0.08 0.04 61 1008.1
20210620165527 75 275 5.0 10.0 0.00 0.08 0.04 61 1008.2
20210620165028 75 298 6.0 13.0 0.00 0.08 0.04 57 1008.2
20210620164557 75 276 5.0 13.0 0.00 0.08 0.04 60 1008.2
20210620164022 75 277 4.0 9.0 0.00 0.08 0.04 59 1008.4
20210620163522 75 298 5.0 14.0 0.00 0.08 0.04 60 1008.5
20210620163047 75 301 4.0 8.0 0.00 0.08 0.04 60 1008.5
20210620162528 74 285 3.0 11.0 0.00 0.08 0.04 63 1008.6
20210620162034 74 311 4.0 8.0 0.00 0.08 0.04 60 1008.7
20210620161549 74 316 1.0 8.0 0.00 0.08 0.04 59 1008.7
20210620161012 74 277 4.0 7.0 0.00 0.08 0.04 62 1008.7
20210620160511 74 302 1.0 7.0 0.00 0.08 0.04 62 1008.7
20210620160024 74 316 4.0 8.0 0.00 0.08 0.04 64 1008.7
20210620155521 73 290 5.0 8.0 0.00 0.08 0.04 64 1008.6
20210620155024 73 274 3.0 8.0 0.00 0.08 0.04 63 1008.8
20210620154557 73 300 3.0 9.0 0.00 0.08 0.04 66 1008.7
20210620154027 73 298 3.0 9.0 0.00 0.08 0.04 67 1008.6
20210620153523 73 256 3.0 9.0 0.00 0.08 0.04 67 1008.7
20210620153031 72 287 3.0 7.0 0.00 0.08 0.04 66 1008.8
20210620152523 72 347 4.0 9.0 0.00 0.08 0.04 64 1008.8
20210620152028 72 309 4.0 8.0 0.00 0.08 0.04 69 1008.9
20210620151550 72 262 1.0 8.0 0.00 0.08 0.04 63 1008.8
20210620151011 72 300 6.0 9.0 0.00 0.08 0.04 63 1008.9
20210620150506 72 297 5.0 7.0 0.00 0.08 0.04 68 1008.9
20210620150034 72 308 3.0 7.0 0.00 0.08 0.04 65 1008.8
20210620145511 72 289 2.0 6.0 0.00 0.08 0.04 67 1008.7
20210620145023 71 282 0.0 6.0 0.00 0.08 0.04 64 1008.6
20210620144553 71 297 2.0 5.0 0.00 0.08 0.04 64 1008.6
20210620144021 71 307 3.0 5.0 0.00 0.08 0.04 71 1008.8
20210620143522 71 280 1.0 3.0 0.00 0.08 0.04 70 1008.8
20210620143053 70 307 1.0 4.0 0.00 0.08 0.04 69 1008.8
20210620142523 70 274 1.0 7.0 0.00 0.08 0.04 68 1008.7
20210620142010 70 293 3.0 7.0 0.00 0.08 0.04 71 1008.9
20210620141515 70 277 3.0 7.0 0.00 0.08 0.04 70 1009.0
20210620141012 69 319 0.0 4.0 0.00 0.08 0.04 71 1009.1
20210620140514 69 243 1.0 6.0 0.00 0.08 0.04 71 1009.1
20210620140037 69 295 1.0 4.0 0.00 0.08 0.04 73 1009.1
20210620135523 69 323 1.0 3.0 0.00 0.08 0.04 72 1009.1
20210620135033 69 259 1.0 4.0 0.00 0.08 0.04 74 1009.1
20210620134546 69 335 0.0 4.0 0.00 0.08 0.04 74 1009.1
20210620134035 68 288 1.0 5.0 0.00 0.08 0.04 74 1009.1
20210620133540 68 295 3.0 5.0 0.00 0.08 0.04 75 1009.2
20210620133030 68 298 2.0 5.0 0.00 0.08 0.04 78 1009.2
20210620132524 67 282 0.0 5.0 0.00 0.08 0.04 76 1009.3
20210620132035 67 276 1.0 5.0 0.00 0.08 0.04 79 1009.3
20210620131659 67 269 2.0 6.0 0.00 0.08 0.04 77 1009.3
20210620131009 67 307 3.0 6.0 0.00 0.08 0.04 78 1009.3
20210620130508 67 319 3.0 7.0 0.00 0.08 0.04 79 1009.3
20210620130015 66 302 3.0 7.0 0.00 0.08 0.04 79 1009.4
20210620125524 66 307 4.0 7.0 0.00 0.08 0.04 79 1009.3
20210620125022 66 298 4.0 7.0 0.00 0.08 0.04 80 1009.4
20210620124530 66 285 3.0 7.0 0.00 0.08 0.04 80 1009.5
20210620124034 65 302 4.0 7.0 0.00 0.08 0.04 80 1009.5
20210620123537 65 291 0.0 3.0 0.00 0.08 0.04 83 1009.4
20210620123101 65 285 0.0 7.0 0.00 0.08 0.04 83 1009.5
20210620122522 65 305 4.0 9.0 0.00 0.08 0.04 81 1009.5
20210620122036 65 302 4.0 9.0 0.00 0.08 0.04 81 1009.4
20210620121538 64 290 6.0 9.0 0.00 0.08 0.04 80 1009.4
20210620121008 64 276 4.0 8.0 0.00 0.08 0.04 83 1009.4
20210620120508 64 273 5.0 8.0 0.00 0.08 0.04 82 1009.3
20210620120108 63 283 2.0 8.0 0.00 0.08 0.04 84 1009.3
20210620115508 63 300 1.0 8.0 0.00 0.08 0.04 84 1009.3
20210620115107 63 300 5.0 7.0 0.00 0.08 0.04 85 1009.2
20210620114614 62 280 1.0 7.0 0.00 0.08 0.04 87 1009.2
20210620114039 62 293 3.0 7.0 0.00 0.08 0.04 87 1009.1
20210620113537 61 323 2.0 6.0 0.00 0.08 0.04 88 1009.1
20210620113057 61 278 2.0 7.0 0.00 0.08 0.04 89 1009.1
20210620112546 61 224 2.0 6.0 0.00 0.08 0.04 90 1009.2
20210620112035 60 294 1.0 3.0 0.00 0.08 0.04 93 1009.0
20210620111542 59 274 0.0 2.0 0.00 0.08 0.04 94 1009.1
20210620111039 59 103 0.0 2.0 0.00 0.08 0.04 94 1009.1
20210620110533 58 142 0.0 3.0 0.00 0.08 0.04 94 1009.0
20210620110059 58 79 1.0 3.0 0.00 0.08 0.04 94 1008.9
20210620105537 58 89 2.0 3.0 0.00 0.08 0.04 94 1008.9
20210620105036 58 94 1.0 2.0 0.00 0.08 0.04 93 1008.9
20210620104620 58 89 0.0 3.0 0.00 0.08 0.04 93 1008.9
20210620104033 58 79 0.0 3.0 0.00 0.08 0.04 92 1008.8
20210620103531 58 101 0.0 1.0 0.00 0.08 0.04 92 1008.8
20210620103051 58 123 0.0 2.0 0.00 0.08 0.04 91 1008.6
20210620102551 59 135 0.0 3.0 0.00 0.08 0.04 90 1008.4
20210620102029 59 101 0.0 7.0 0.00 0.08 0.04 90 1008.4
20210620101558 59 322 2.0 7.0 0.00 0.08 0.04 91 1008.4
20210620101029 59 300 2.0 7.0 0.00 0.08 0.04 91 1008.5
20210620100535 59 303 0.0 7.0 0.00 0.08 0.04 91 1008.4
20210620100043 58 312 2.0 8.0 0.00 0.08 0.04 92 1008.3
20210620095528 58 317 3.0 8.0 0.00 0.08 0.04 94 1008.3
20210620095027 58 302 2.0 6.0 0.00 0.08 0.04 94 1008.2